DIAMOND BLUE (42786 NORAD) Tracking and Keplerian Element Data

This shows tracking and keplerian element data for the satellite.

Feedback or suggestion? Click here.




ElementValue
Catalog42786
NameDIAMOND BLUE
Epoch Orbit5981
Epoch Day202.6020022
Epoch Year2018
RAAN261.7436
Inclination97.3986
Eccentricity0.0010995
Argument of Perigee323.5533
Mean Anonmoly36.4953
Mean Motion15.21531202
Decay Rate8.64E-06
L11 42786U 17036X 18202.60200220 .00000864 00000-0 41414-4 0 9995
L22 42786 97.3986 261.7436 0010995 323.5533 36.4953 15.21531202 59813

Live tracking and technical data element details for DIAMOND BLUE (NORAD 42786). DIAMOND BLUE can be tracked NOW for your location showing map with azimuth and elevation plus other details from your city location.

Track the satellite on the map from your city or location and see movement details for azimuth, elevation, latitude, longitude, range, height, and movement on the map or in text.







IsCatalogInMostPopularTable: catalog: 42786, numindb: 70
Update: records affected: 1



GetName: 42786 DIAMOND BLUE

Hit Count: updated at: Mon, 23 Jul 2018 07:32:29 GMT